Location: Kuffner-Sternwarte
(48.2130°N, 16.2960°E)
Time: 20:28:02
(UTC+02:00)

COROT - Visible Passes

Search period start: 19 April 2019 00:00
Search period end: 29 April 2019 00:00
Orbit: 600 x 888 km, 90.0° (Epoch: 18 April)

Date Brightness Start Highest point End Pass type
(mag) Time Alt. Az. Time Alt. Az. Time Alt. Az.
19 Apr 7.9 01:37:49 10° NNW 01:41:28 21° WNW 01:41:28 21° WNW visible
19 Apr 7.2 23:14:27 10° NNE 23:18:38 31° ENE 23:18:38 31° ENE visible
20 Apr 7.0 00:53:53 10° NNW 00:58:25 40° WNW 00:58:25 40° WNW visible
20 Apr 8.0 22:32:24 10° NE 22:35:36 16° ENE 22:35:36 16° ENE visible
21 Apr 6.3 00:10:28 10° N 00:15:23 74° NNW 00:15:23 74° NNW visible
21 Apr 8.3 01:51:56 10° NW 01:54:42 14° WNW 01:55:10 14° WNW visible
21 Apr 6.7 23:27:26 10° NNE 23:32:21 47° ENE 23:32:21 47° ENE visible
22 Apr 7.5 01:07:27 10° NNW 01:12:03 29° WNW 01:12:08 29° WNW visible
22 Apr 7.6 22:44:54 10° NNE 22:49:17 24° E 22:49:19 24° E visible
23 Apr 6.5 00:23:48 10° N 00:29:06 58° W 00:29:06 58° W visible
23 Apr 8.3 22:03:43 10° NE 22:05:36 12° ENE 22:06:17 11° E visible
23 Apr 6.2 23:40:35 10° N 23:46:04 71° E 23:46:04 71° E visible
24 Apr 8.0 01:21:13 10° NNW 01:25:09 20° WNW 01:25:51 20° W visible
24 Apr 7.0 22:57:44 10° NNE 23:02:48 35° E 23:03:02 35° E visible
25 Apr 7.1 00:37:16 10° NNW 00:42:24 40° W 00:42:49 39° W visible
25 Apr 7.9 22:15:33 10° NE 22:19:16 18° ENE 22:20:01 17° E visible
25 Apr 6.1 23:53:51 10° N 23:59:26 80° W 23:59:48 76° SW visible
26 Apr 8.4 01:35:23 10° NW 01:38:10 14° WNW 01:39:35 13° W visible
26 Apr 6.5 23:10:47 10° N 23:16:16 51° E 23:16:46 50° ESE visible
27 Apr 7.6 00:50:53 10° NNW 00:55:33 28° WNW 00:56:33 26° W visible
27 Apr 7.4 22:28:11 10° NNE 22:32:51 26° E 22:33:45 25° E visible
28 Apr 6.6 00:07:13 10° N 00:12:43 55° W 00:13:32 51° WSW visible
28 Apr 8.2 21:46:41 10° NE 21:49:11 13° ENE 21:50:43 12° E visible
28 Apr 6.2 23:23:59 10° N 23:29:40 75° E 23:30:30 63° SSE visible
